,,Stat5,,Stat1,,Stat2,,Stat3,,Stat4,,Wind1,,Wind1,
time,status,PA1M_AVG,status,PR1M_SUM,status,RH1M_AVG,status,SR1M_AVG,status,TA1M_AVG,status,W1dAve1m,status,W1sAve1m,
2002-02-26, 00:00:00,VALID,919.131,VALID,0,VALID,93.8012,VALID,0,VALID,20.7448,VALID,240,VALID,0.162861,
2002-02-26, 00:01:00,VALID,919.136,VALID,0,VALID,94.1483,VALID,0,VALID,20.7647,VALID,277,VALID,0.174342,
2002-02-26, 00:02:00,VALID,919.135,VALID,0,VALID,94.4395,VALID,0,VALID,20.7846,VALID,18,VALID,0.512952,
2002-02-26, 00:03:00,VALID,919.133,VALID,0,VALID,94.6023,VALID,-0.0339617,VALID,20.7945,VALID,17,VALID,0.314967,
2002-02-26, 00:04:00,VALID,919.135,VALID,0,VALID,94.8375,VALID,0,VALID,20.7975,VALID,17,VALID,0.531033,
2002-02-26, 00:05:00,VALID,919.146,VALID,0,VALID,94.9545,VALID,0,VALID,20.8005,VALID,17,VALID,0.267887,
2002-02-26, 00:06:00,VALID,919.152,VALID,0,VALID,95.0041,VALID,0,VALID,20.7878,VALID,17,VALID,0.166797,
2002-02-26, 00:07:00,VALID,919.156,VALID,0,VALID,94.8185,VALID,-0.0169808,VALID,20.7523,VALID,16,VALID,0.0535156,
2002-02-26, 00:08:00,VALID,919.149,VALID,0,VALID,94.8642,VALID,0,VALID,20.717,VALID,9,VALID,0.0332532,
2002-02-26, 00:09:00,VALID,919.154,VALID,0,VALID,95.0868,VALID,-0.0509425,VALID,20.7173,VALID,228,VALID,0.334375,
2002-02-26, 00:10:00,VALID,919.156,VALID,0,VALID,95.3055,VALID,0,VALID,20.7165,VALID,225,VALID,0.0345703,
2002-02-26, 00:11:00,VALID,919.158,VALID,0,VALID,95.4568,VALID,0,VALID,20.7399,VALID,225,VALID,0,
2002-02-26, 00:12:00,VALID,919.145,VALID,0,VALID,95.5687,VALID,-0.0509425,VALID,20.7394,VALID,225,VALID,0,
2002-02-26, 00:13:00,VALID,919.124,VALID,0,VALID,95.5598,VALID,-0.0679233,VALID,20.7297,VALID,225,VALID,0,
2002-02-26, 00:14:00,VALID,919.109,VALID,0,VALID,95.6933,VALID,-0.0339617,VALID,20.7372,VALID,225,VALID,0,
2002-02-26, 00:15:00,VALID,919.096,VALID,0,VALID,95.8917,VALID,-0.0339617,VALID,20.7633,VALID,224,VALID,0,
2002-02-26, 00:16:00,VALID,919.09,VALID,0,VALID,95.9197,VALID,-0.0339617,VALID,20.7558,VALID,204,VALID,0,
2002-02-26, 00:17:00,VALID,919.085,VALID,0,VALID,95.9769,VALID,0,VALID,20.7458,VALID,189,VALID,0,
2002-02-26, 00:18:00,VALID,919.084,VALID,0,VALID,96.1091,VALID,-0.0169808,VALID,20.7525,VALID,76,VALID,0.332589,
2002-02-26, 00:19:00,VALID,919.096,VALID,0,VALID,96.2198,VALID,0,VALID,20.7523,VALID,45,VALID,0.56989,
2002-02-26, 00:20:00,VALID,919.114,VALID,0,VALID,96.2579,VALID,-0.0169808,VALID,20.759,VALID,41,VALID,0.712891,
2002-02-26, 00:21:01,VALID,919.124,VALID,0,VALID,96.3393,VALID,0.0169808,VALID,20.7488,VALID,40,VALID,0.324436,
2002-02-26, 00:22:01,VALID,919.11,VALID,0,VALID,96.4474,VALID,0.0169808,VALID,20.7625,VALID,38,VALID,0.45012,
2002-02-26, 00:23:00,VALID,919.113,VALID,0,VALID,96.4983,VALID,0,VALID,20.7555,VALID,38,VALID,0.310892,
2002-02-26, 00:24:00,VALID,919.102,VALID,0,VALID,96.5161,VALID,0,VALID,20.7555,VALID,38,VALID,0.0549107,
2002-02-26, 00:25:00,VALID,919.094,VALID,0,VALID,96.2884,VALID,-0.0169808,VALID,20.7235,VALID,37,VALID,0,
2002-02-26, 00:26:00,VALID,919.09,VALID,0,VALID,96.174,VALID,0,VALID,20.6842,VALID,38,VALID,0,
2002-02-26, 00:27:00,VALID,919.094,VALID,0,VALID,96.1308,VALID,0,VALID,20.6529,VALID,38,VALID,0.0197368,
2002-02-26, 00:28:00,VALID,919.108,VALID,0,VALID,96.3571,VALID,-0.0169808,VALID,20.633,VALID,35,VALID,0.202232,
2002-02-26, 00:29:00,VALID,919.112,VALID,0,VALID,96.5428,VALID,0,VALID,20.6554,VALID,33,VALID,0.304287,
2002-02-26, 00:30:00,VALID,919.109,VALID,0,VALID,96.5161,VALID,0,VALID,20.6753,VALID,33,VALID,0.385417,
2002-02-26, 00:31:00,VALID,919.103,VALID,0,VALID,96.4766,VALID,-0.0169808,VALID,20.6594,VALID,34,VALID,0.297743,
2002-02-26, 00:32:00,VALID,919.12,VALID,0,VALID,96.5924,VALID,-0.0339617,VALID,20.6688,VALID,31,VALID,0.629523,
2002-02-26, 00:33:01,VALID,919.12,VALID,0,VALID,96.689,VALID,-0.0169808,VALID,20.6855,VALID,24,VALID,0.63101,
2002-02-26, 00:34:00,VALID,919.132,VALID,0,VALID,96.8543,VALID,-0.0169808,VALID,20.7208,VALID,22,VALID,0.457422,
2002-02-26, 00:35:00,VALID,919.119,VALID,0,VALID,96.8937,VALID,0,VALID,20.7434,VALID,20,VALID,0.454911,
2002-02-26, 00:36:00,VALID,919.106,VALID,0,VALID,96.82,VALID,-0.0169808,VALID,20.7367,VALID,14,VALID,0.341639,
2002-02-26, 00:37:00,VALID,919.088,VALID,0,VALID,96.9484,VALID,0,VALID,20.7334,VALID,14,VALID,0.0278033,
2002-02-26, 00:38:00,VALID,919.068,VALID,0,VALID,97.0323,VALID,0,VALID,20.7695,VALID,1,VALID,0.166964,
2002-02-26, 00:39:00,VALID,919.054,VALID,0,VALID,97.0005,VALID,-0.0169808,VALID,20.7488,VALID,358,VALID,0,
2002-02-26, 00:40:00,VALID,919.033,VALID,0,VALID,97.0247,VALID,0,VALID,20.7655,VALID,8,VALID,0.411106,
2002-02-26, 00:41:00,VALID,919.013,VALID,0,VALID,97.0527,VALID,0,VALID,20.769,VALID,20,VALID,0.43935,
2002-02-26, 00:42:00,VALID,918.992,VALID,0,VALID,97.148,VALID,-0.0169808,VALID,20.7781,VALID,20,VALID,0.55067,
2002-02-26, 00:43:00,VALID,918.978,VALID,0,VALID,97.1709,VALID,0,VALID,20.7911,VALID,28,VALID,0.464744,
2002-02-26, 00:44:00,VALID,918.947,VALID,0,VALID,97.1048,VALID,-0.0169808,VALID,20.7717,VALID,79,VALID,0.570089,
2002-02-26, 00:45:00,VALID,918.919,VALID,0,VALID,96.9713,VALID,-0.0339617,VALID,20.7625,VALID,103,VALID,0.708984,
2002-02-26, 00:46:00,VALID,918.917,VALID,0,VALID,96.9509,VALID,0,VALID,20.7307,VALID,101,VALID,0.94778,
2002-02-26, 00:47:00,VALID,918.903,VALID,0,VALID,96.8518,VALID,0,VALID,20.6753,VALID,84,VALID,1.42288,
2002-02-26, 00:48:00,VALID,918.898,VALID,0,VALID,96.7551,VALID,0.0169808,VALID,20.6039,VALID,91,VALID,1.42324,
2002-02-26, 00:49:00,VALID,918.892,VALID,0,VALID,96.9153,VALID,-0.0339617,VALID,20.5398,VALID,95,VALID,1.29844,
2002-02-26, 00:50:01,VALID,918.877,VALID,0,VALID,97.143,VALID,-0.0339617,VALID,20.5102,VALID,87,VALID,0.721495,
2002-02-26, 00:51:00,VALID,918.878,VALID,0,VALID,97.2472,VALID,-0.0339617,VALID,20.5008,VALID,92,VALID,0.972886,
2002-02-26, 00:52:00,VALID,918.863,VALID,0,VALID,97.1684,VALID,-0.0169808,VALID,20.469,VALID,96,VALID,1.18772,
2002-02-26, 00:53:00,VALID,918.844,VALID,0,VALID,97.1557,VALID,-0.0169808,VALID,20.4168,VALID,97,VALID,1.0635,
2002-02-26, 00:54:00,VALID,918.835,VALID,0,VALID,97.204,VALID,-0.0339617,VALID,20.3751,VALID,93,VALID,0.988809,
2002-02-26, 00:55:00,VALID,918.825,VALID,0,VALID,97.2701,VALID,0,VALID,20.3398,VALID,91,VALID,0.97903,
2002-02-26, 00:56:00,VALID,918.822,VALID,0,VALID,97.3986,VALID,0,VALID,20.3333,VALID,76,VALID,0.808705,
2002-02-26, 00:57:00,VALID,918.809,VALID,0,VALID,97.4634,VALID,0,VALID,20.3269,VALID,86,VALID,1.10116,
2002-02-26, 00:58:00,VALID,918.792,VALID,0,VALID,97.5105,VALID,0.0169808,VALID,20.3269,VALID,91,VALID,1.15388,
2002-02-26, 00:59:00,VALID,918.776,VALID,0,VALID,97.5473,VALID,0,VALID,20.3005,VALID,97,VALID,0.832248,
2002-02-26, 01:00:01,VALID,918.745,VALID,0,VALID,97.6516,VALID,0,VALID,20.3207,VALID,116,VALID,0.570313,
2002-02-26, 01:01:01,VALID,918.713,VALID,0,VALID,97.6923,VALID,0,VALID,20.3194,VALID,141,VALID,0.59996,
2002-02-26, 01:02:00,VALID,918.685,VALID,0,VALID,97.6274,VALID,-0.0339617,VALID,20.3167,VALID,113,VALID,0.908594,
2002-02-26, 01:03:00,VALID,918.642,VALID,0,VALID,97.5651,VALID,-0.0169808,VALID,20.2938,VALID,123,VALID,0.52567,
2002-02-26, 01:04:00,VALID,918.621,VALID,0,VALID,97.5015,VALID,0,VALID,20.2884,VALID,150,VALID,0.60473,
2002-02-26, 01:05:00,VALID,918.57,VALID,0,VALID,97.5435,VALID,0,VALID,20.2712,VALID,145,VALID,0.740809,
2002-02-26, 01:06:00,VALID,918.545,VALID,0,VALID,97.5791,VALID,0,VALID,20.2675,VALID,151,VALID,0.440848,
2002-02-26, 01:07:00,VALID,918.501,VALID,0,VALID,97.5804,VALID,0,VALID,20.2938,VALID,151,VALID,0.60016,
2002-02-26, 01:08:00,VALID,918.482,VALID,0,VALID,97.5473,VALID,0,VALID,20.2948,VALID,147,VALID,0.866765,
2002-02-26, 01:09:01,VALID,918.448,VALID,0,VALID,97.5257,VALID,0,VALID,20.301,VALID,148,VALID,1.10012,
2002-02-26, 01:10:00,VALID,918.424,VALID,0,VALID,97.5219,VALID,-0.0169808,VALID,20.2841,VALID,146,VALID,0.664732,
2002-02-26, 01:11:00,VALID,918.397,VALID,0,VALID,97.541,VALID,0,VALID,20.2884,VALID,159,VALID,0.696314,
2002-02-26, 01:12:01,VALID,918.381,VALID,0,VALID,97.4952,VALID,-0.0169808,VALID,20.2814,VALID,149,VALID,0.923059,
2002-02-26, 01:13:00,VALID,918.361,VALID,0,VALID,97.4952,VALID,0,VALID,20.272,VALID,153,VALID,0.96875,
2002-02-26, 01:14:00,VALID,918.341,VALID,0,VALID,97.5003,VALID,0.0339617,VALID,20.2526,VALID,155,VALID,0.788857,
2002-02-26, 01:15:00,VALID,918.331,VALID,0,VALID,97.5791,VALID,0.0169808,VALID,20.2461,VALID,159,VALID,0.642829,
2002-02-26, 01:16:00,VALID,918.316,VALID,0,VALID,97.616,VALID,0,VALID,20.259,VALID,154,VALID,0.861328,
2002-02-26, 01:17:00,VALID,918.3,VALID,0,VALID,97.6376,VALID,-0.0169808,VALID,20.2521,VALID,139,VALID,0.816295,
2002-02-26, 01:18:00,VALID,918.279,VALID,0,VALID,97.6402,VALID,-0.0169808,VALID,20.2652,VALID,147,VALID,0.824113,
2002-02-26, 01:19:00,VALID,918.259,VALID,0,VALID,97.5918,VALID,-0.0339617,VALID,20.2692,VALID,143,VALID,1.23552,
2002-02-26, 01:20:01,VALID,918.239,VALID,0,VALID,97.5779,VALID,-0.0169808,VALID,20.2335,VALID,147,VALID,1.49643,
2002-02-26, 01:21:00,VALID,918.215,VALID,0,VALID,97.6236,VALID,-0.0339617,VALID,20.2332,VALID,143,VALID,1.45112,
2002-02-26, 01:22:00,VALID,918.231,VALID,0,VALID,97.6211,VALID,0,VALID,20.2068,VALID,146,VALID,1.5473,
2002-02-26, 01:23:00,VALID,918.222,VALID,0,VALID,97.6109,VALID,-0.0339617,VALID,20.2243,VALID,146,VALID,1.7095,
2002-02-26, 01:24:00,VALID,918.221,VALID,0,VALID,97.6847,VALID,-0.0169808,VALID,20.2044,VALID,141,VALID,1.7779,
2002-02-26, 01:25:00,VALID,918.218,VALID,0,VALID,97.7279,VALID,0,VALID,20.1944,VALID,148,VALID,1.71975,
2002-02-26, 01:26:00,VALID,918.225,VALID,0,VALID,97.7915,VALID,-0.0169808,VALID,20.2006,VALID,146,VALID,1.58854,
2002-02-26, 01:27:00,VALID,918.248,VALID,0,VALID,97.8856,VALID,0,VALID,20.2108,VALID,144,VALID,1.44965,
2002-02-26, 01:28:00,VALID,918.263,VALID,0,VALID,97.9415,VALID,-0.0169808,VALID,20.2337,VALID,144,VALID,1.64104,
2002-02-26, 01:29:00,VALID,918.282,VALID,0,VALID,97.986,VALID,0,VALID,20.2429,VALID,142,VALID,1.64083,
2002-02-26, 01:30:00,VALID,918.303,VALID,0,VALID,98.0496,VALID,-0.0339617,VALID,20.2692,VALID,146,VALID,2.11328,
2002-02-26, 01:31:00,VALID,918.279,VALID,0,VALID,98.0585,VALID,-0.0169808,VALID,20.272,VALID,144,VALID,1.61138,
2002-02-26, 01:32:01,VALID,918.259,VALID,0,VALID,98.1081,VALID,-0.0169808,VALID,20.3013,VALID,140,VALID,1.5568,
2002-02-26, 01:33:00,VALID,918.246,VALID,0,VALID,98.1043,VALID,-0.0169808,VALID,20.311,VALID,129,VALID,0.980469,
2002-02-26, 01:34:00,VALID,918.218,VALID,0,VALID,98.1081,VALID,0,VALID,20.3172,VALID,124,VALID,1.1192,
2002-02-26, 01:35:01,VALID,918.182,VALID,0,VALID,98.1119,VALID,0,VALID,20.3271,VALID,133,VALID,0.925481,
2002-02-26, 01:36:00,VALID,918.174,VALID,0,VALID,98.1526,VALID,-0.0169808,VALID,20.35,VALID,147,VALID,0.852618,
2002-02-26, 01:37:00,VALID,918.18,VALID,0,VALID,98.1348,VALID,0,VALID,20.3589,VALID,118,VALID,0.563117,
2002-02-26, 01:38:00,VALID,918.194,VALID,0,VALID,98.1132,VALID,-0.0169808,VALID,20.3624,VALID,131,VALID,0.749777,
2002-02-26, 01:39:00,VALID,918.222,VALID,0,VALID,98.0903,VALID,-0.0339617,VALID,20.3726,VALID,122,VALID,0.585737,
2002-02-26, 01:40:01,VALID,918.239,VALID,0,VALID,98.0789,VALID,-0.101885,VALID,20.3734,VALID,117,VALID,0.452415,
2002-02-26, 01:41:00,VALID,918.253,VALID,0,VALID,97.9886,VALID,-0.135847,VALID,20.3771,VALID,91,VALID,0.435981,
2002-02-26, 01:42:00,VALID,918.265,VALID,0,VALID,98.0089,VALID,-0.101885,VALID,20.3769,VALID,95,VALID,0.584087,
2002-02-26, 01:43:01,VALID,918.266,VALID,0,VALID,97.9911,VALID,-0.118866,VALID,20.3804,VALID,91,VALID,0.714143,
2002-02-26, 01:44:01,VALID,918.252,VALID,0,VALID,97.9199,VALID,-0.135847,VALID,20.3871,VALID,102,VALID,0.558984,
2002-02-26, 01:45:01,VALID,918.266,VALID,0,VALID,97.8919,VALID,-0.101885,VALID,20.3672,VALID,112,VALID,0.939732,
2002-02-26, 01:46:00,VALID,918.267,VALID,0,VALID,97.9046,VALID,-0.101885,VALID,20.3674,VALID,133,VALID,0.925465,
2002-02-26, 01:47:01,VALID,918.265,VALID,0,VALID,97.9237,VALID,-0.101885,VALID,20.3933,VALID,153,VALID,0.75,
2002-02-26, 01:48:00,VALID,918.254,VALID,0,VALID,97.8919,VALID,0,VALID,20.3885,VALID,131,VALID,0.638616,
2002-02-26, 01:49:01,VALID,918.255,VALID,0,VALID,97.8945,VALID,-0.0169808,VALID,20.3848,VALID,155,VALID,1.08233,
2002-02-26, 01:50:01,VALID,918.241,VALID,0,VALID,97.9021,VALID,-0.0169808,VALID,20.3947,VALID,155,VALID,1.19299,
2002-02-26, 01:51:01,VALID,918.229,VALID,0,VALID,97.9046,VALID,-0.0169808,VALID,20.4047,VALID,158,VALID,1.25555,
2002-02-26, 01:52:00,VALID,918.234,VALID,0,VALID,97.8055,VALID,-0.0509425,VALID,20.4084,VALID,157,VALID,1.19286,
2002-02-26, 01:53:00,VALID,918.207,VALID,0,VALID,97.7749,VALID,-0.0169808,VALID,20.3917,VALID,156,VALID,1.40605,
2002-02-26, 01:54:00,VALID,918.182,VALID,0,VALID,97.7927,VALID,0,VALID,20.3957,VALID,162,VALID,1.53172,
2002-02-26, 01:55:00,VALID,918.158,VALID,0,VALID,97.7877,VALID,0,VALID,20.3748,VALID,151,VALID,1.78711,
2002-02-26, 01:56:00,VALID,918.13,VALID,0,VALID,97.7673,VALID,0,VALID,20.3756,VALID,151,VALID,1.76049,
2002-02-26, 01:57:00,VALID,918.111,VALID,0,VALID,97.7393,VALID,-0.0169808,VALID,20.3788,VALID,146,VALID,1.11999,
2002-02-26, 01:58:01,VALID,918.09,VALID,0,VALID,97.7508,VALID,-0.0169808,VALID,20.3691,VALID,143,VALID,1.33867,
2002-02-26, 01:59:01,VALID,918.072,VALID,0,VALID,97.7482,VALID,-0.0339617,VALID,20.3527,VALID,128,VALID,1.07411,
2002-02-26, 02:00:01,VALID,918.068,VALID,0,VALID,97.7915,VALID,-0.0169808,VALID,20.3627,VALID,139,VALID,1.1364,
2002-02-26, 02:01:01,VALID,918.057,VALID,0,VALID,97.7927,VALID,0,VALID,20.3788,VALID,122,VALID,1.03906,
2002-02-26, 02:02:01,VALID,918.055,VALID,0,VALID,97.7813,VALID,-0.0169808,VALID,20.3622,VALID,126,VALID,0.720982,
2002-02-26, 02:03:01,VALID,918.05,VALID,0,VALID,97.7762,VALID,-0.0169808,VALID,20.3955,VALID,113,VALID,1.0629,
2002-02-26, 02:04:01,VALID,918.024,VALID,0,VALID,97.7152,VALID,-0.0339617,VALID,20.395,VALID,117,VALID,1.47107,
2002-02-26, 02:05:01,VALID,918.015,VALID,0,VALID,97.6529,VALID,-0.0169808,VALID,20.3877,VALID,114,VALID,1.80859,
2002-02-26, 02:06:01,VALID,917.993,VALID,0,VALID,97.5804,VALID,-0.0169808,VALID,20.395,VALID,111,VALID,1.20536,
2002-02-26, 02:07:01,VALID,917.976,VALID,0,VALID,97.5143,VALID,0,VALID,20.4012,VALID,116,VALID,0.987179,
2002-02-26, 02:08:01,VALID,917.959,VALID,0,VALID,97.3947,VALID,0,VALID,20.4076,VALID,124,VALID,1.12666,
2002-02-26, 02:09:01,VALID,917.936,VALID,0,VALID,97.2777,VALID,0,VALID,20.3974,VALID,125,VALID,1.22374,
2002-02-26, 02:10:01,VALID,917.927,VALID,0,VALID,97.2053,VALID,-0.0339617,VALID,20.4014,VALID,137,VALID,0.985609,
2002-02-26, 02:11:01,VALID,917.918,VALID,0,VALID,97.1608,VALID,0,VALID,20.4111,VALID,141,VALID,0.876603,
2002-02-26, 02:12:01,VALID,917.931,VALID,0,VALID,97.0578,VALID,0,VALID,20.4114,VALID,137,VALID,1.14453,
2002-02-26, 02:13:01,VALID,917.91,VALID,0,VALID,96.9052,VALID,-0.0169808,VALID,20.4082,VALID,141,VALID,1.18817,
2002-02-26, 02:14:01,VALID,917.913,VALID,0,VALID,96.7437,VALID,0,VALID,20.4141,VALID,134,VALID,1.10262,
2002-02-26, 02:15:01,VALID,917.9,VALID,0,VALID,96.628,VALID,-0.0169808,VALID,20.4305,VALID,145,VALID,1.33249,
2002-02-26, 02:16:01,VALID,917.888,VALID,0,VALID,96.5046,VALID,-0.0169808,VALID,20.4593,VALID,134,VALID,1.24576,
2002-02-26, 02:17:01,VALID,917.857,VALID,0,VALID,96.3711,VALID,-0.0509425,VALID,20.462,VALID,142,VALID,0.924479,
2002-02-26, 02:18:01,VALID,917.832,VALID,0,VALID,96.2859,VALID,0,VALID,20.4889,VALID,123,VALID,0.671453,
2002-02-26, 02:19:00,VALID,917.797,VALID,0,VALID,96.221,VALID,0,VALID,20.4822,VALID,122,VALID,0.640419,
2002-02-26, 02:20:00,VALID,917.757,VALID,0,VALID,96.1702,VALID,-0.0169808,VALID,20.4725,VALID,103,VALID,0.522321,
2002-02-26, 02:21:00,VALID,917.711,VALID,0,VALID,96.1587,VALID,-0.0169808,VALID,20.4725,VALID,85,VALID,0.548077,
2002-02-26, 02:22:00,VALID,917.666,VALID,0,VALID,96.1117,VALID,-0.0339617,VALID,20.4661,VALID,118,VALID,0.715436,
2002-02-26, 02:23:00,VALID,917.619,VALID,0,VALID,96.1244,VALID,-0.0169808,VALID,20.4464,VALID,103,VALID,0.677951,
2002-02-26, 02:24:00,VALID,917.619,VALID,0,VALID,96.132,VALID,-0.0169808,VALID,20.4469,VALID,58,VALID,0.668174,
2002-02-26, 02:25:00,VALID,917.599,VALID,0,VALID,96.099,VALID,-0.0169808,VALID,20.4305,VALID,47,VALID,0.427083,
2002-02-26, 02:26:00,VALID,917.595,VALID,0,VALID,95.9807,VALID,-0.0339617,VALID,20.4144,VALID,90,VALID,0.711914,
2002-02-26, 02:27:00,VALID,917.582,VALID,0,VALID,95.9604,VALID,-0.0169808,VALID,20.4079,VALID,43,VALID,0.676339,
2002-02-26, 02:28:00,VALID,917.584,VALID,0,VALID,95.954,VALID,0,VALID,20.4082,VALID,68,VALID,0.331292,
2002-02-26, 02:29:00,VALID,917.589,VALID,0,VALID,95.837,VALID,0,VALID,20.3885,VALID,121,VALID,0.565717,
2002-02-26, 02:30:00,VALID,917.567,VALID,0,VALID,95.6717,VALID,-0.0339617,VALID,20.3694,VALID,146,VALID,1.29844,
2002-02-26, 02:31:00,VALID,917.556,VALID,0,VALID,95.3157,VALID,0,VALID,20.3826,VALID,140,VALID,1.40164,
2002-02-26, 02:32:00,VALID,917.53,VALID,0,VALID,95.088,VALID,0,VALID,20.4111,VALID,147,VALID,0.85114,
2002-02-26, 02:33:00,VALID,917.513,VALID,0,VALID,94.8286,VALID,-0.0169808,VALID,20.4504,VALID,148,VALID,1.33758,
2002-02-26, 02:34:00,VALID,917.491,VALID,0,VALID,94.5819,VALID,-0.0339617,VALID,20.473,VALID,153,VALID,0.927679,
2002-02-26, 02:35:00,VALID,917.476,VALID,0,VALID,94.3709,VALID,0,VALID,20.4946,VALID,147,VALID,0.846354,
2002-02-26, 02:36:00,VALID,917.468,VALID,0,VALID,94.0949,VALID,-0.0169808,VALID,20.5148,VALID,154,VALID,0.982244,
2002-02-26, 02:37:00,VALID,917.446,VALID,0,VALID,93.819,VALID,-0.0169808,VALID,20.518,VALID,158,VALID,0.674045,
2002-02-26, 02:38:00,VALID,917.433,VALID,0,VALID,93.4782,VALID,-0.0169808,VALID,20.5177,VALID,141,VALID,1.02364,
2002-02-26, 02:39:00,VALID,917.434,VALID,0,VALID,93.1209,VALID,-0.0169808,VALID,20.5277,VALID,159,VALID,1.21615,
2002-02-26, 02:40:00,VALID,917.417,VALID,0,VALID,92.8602,VALID,-0.0169808,VALID,20.56,VALID,152,VALID,0.79668,
2002-02-26, 02:41:00,VALID,917.403,VALID,0,VALID,92.4406,VALID,-0.0169808,VALID,20.5958,VALID,138,VALID,0.718527,
2002-02-26, 02:42:00,VALID,917.389,VALID,0,VALID,92.0311,VALID,0,VALID,20.6174,VALID,150,VALID,0.489231,
2002-02-26, 02:43:00,VALID,917.384,VALID,0,VALID,91.6458,VALID,0,VALID,20.6502,VALID,138,VALID,0.301011,
2002-02-26, 02:44:00,VALID,917.384,VALID,0,VALID,91.4538,VALID,0.0169808,VALID,20.689,VALID,134,VALID,0.216295,
2002-02-26, 02:45:00,VALID,917.38,VALID,0,VALID,91.2173,VALID,0,VALID,20.6825,VALID,129,VALID,0.21254,
2002-02-26, 02:46:00,VALID,917.369,VALID,0,VALID,91.1448,VALID,0.0169808,VALID,20.6761,VALID,153,VALID,0.497466,
2002-02-26, 02:47:00,VALID,917.371,VALID,0,VALID,90.5471,VALID,0,VALID,20.647,VALID,158,VALID,0.795847,
2002-02-26, 02:48:00,VALID,917.338,VALID,0,VALID,89.98,VALID,-0.0339617,VALID,20.6246,VALID,145,VALID,0.70558,
2002-02-26, 02:49:00,VALID,917.321,VALID,0,VALID,89.6939,VALID,0,VALID,20.6209,VALID,104,VALID,0.450321,
2002-02-26, 02:50:00,VALID,917.306,VALID,0,VALID,90.2013,VALID,0,VALID,20.644,VALID,26,VALID,0.0710227,
2002-02-26, 02:51:00,VALID,917.277,VALID,0,VALID,90.4327,VALID,0,VALID,20.605,VALID,22,VALID,0.0566406,
2002-02-26, 02:52:00,VALID,917.262,VALID,0,VALID,91.347,VALID,-0.0169808,VALID,20.5692,VALID,320,VALID,0.307566,
2002-02-26, 02:53:00,VALID,917.244,VALID,0,VALID,91.745,VALID,0,VALID,20.5371,VALID,274,VALID,0.423209,
2002-02-26, 02:54:00,VALID,917.248,VALID,0,VALID,92.5982,VALID,-0.0169808,VALID,20.5277,VALID,284,VALID,0.764453,
2002-02-26, 02:55:00,VALID,917.245,VALID,0,VALID,93.304,VALID,-0.0339617,VALID,20.5081,VALID,286,VALID,0.623438,
2002-02-26, 02:56:00,VALID,917.268,VALID,0,VALID,93.5354,VALID,0,VALID,20.4695,VALID,308,VALID,0.920186,
2002-02-26, 02:57:00,VALID,917.279,VALID,0,VALID,94.0644,VALID,-0.0169808,VALID,20.4337,VALID,288,VALID,0.745634,
2002-02-26, 02:58:00,VALID,917.307,VALID,0,VALID,94.479,VALID,-0.0169808,VALID,20.4179,VALID,296,VALID,0.53683,
2002-02-26, 02:59:00,VALID,917.333,VALID,0,VALID,94.6532,VALID,-0.0169808,VALID,20.3783,VALID,272,VALID,0.582131,
2002-02-26, 03:00:00,VALID,917.353,VALID,0,VALID,94.7943,VALID,0,VALID,20.3401,VALID,266,VALID,0.697213,
2002-02-26, 03:01:00,VALID,917.373,VALID,0,VALID,94.9456,VALID,0,VALID,20.311,VALID,272,VALID,0.55222,
2002-02-26, 03:02:00,VALID,917.374,VALID,0,VALID,95.0804,VALID,0,VALID,20.2953,VALID,271,VALID,0.608929,
2002-02-26, 03:03:00,VALID,917.371,VALID,0,VALID,95.2508,VALID,0,VALID,20.2658,VALID,272,VALID,0.532252,
2002-02-26, 03:04:00,VALID,917.355,VALID,0,VALID,95.439,VALID,0,VALID,20.2501,VALID,270,VALID,0.483428,
2002-02-26, 03:05:00,VALID,917.349,VALID,0,VALID,95.6069,VALID,-0.0169808,VALID,20.2367,VALID,273,VALID,0.423177,
2002-02-26, 03:06:00,VALID,917.321,VALID,0,VALID,95.7493,VALID,-0.0169808,VALID,20.2335,VALID,278,VALID,0.252262,
2002-02-26, 03:07:00,VALID,917.304,VALID,0,VALID,95.8815,VALID,0,VALID,20.2272,VALID,279,VALID,0.308694,
2002-02-26, 03:08:00,VALID,917.291,VALID,0,VALID,95.9451,VALID,0.0169808,VALID,20.2143,VALID,279,VALID,0.196875,
2002-02-26, 03:09:00,VALID,917.287,VALID,0,VALID,96.01,VALID,0,VALID,20.2014,VALID,279,VALID,0.187054,
2002-02-26, 03:10:00,VALID,917.282,VALID,0,VALID,96.0672,VALID,0,VALID,20.2011,VALID,269,VALID,0.49261,
2002-02-26, 03:11:00,VALID,917.303,VALID,0,VALID,96.0252,VALID,0,VALID,20.1785,VALID,259,VALID,0.633961,
2002-02-26, 03:12:00,VALID,917.319,VALID,0,VALID,96.0316,VALID,0.0339617,VALID,20.1621,VALID,255,VALID,0.626786,
2002-02-26, 03:13:00,VALID,917.357,VALID,0,VALID,96.0125,VALID,0,VALID,20.1624,VALID,238,VALID,0.4998,
2002-02-26, 03:14:00,VALID,917.397,VALID,0,VALID,95.9896,VALID,0,VALID,20.1659,VALID,237,VALID,0.0517314,
2002-02-26, 03:15:00,VALID,917.439,VALID,0,VALID,96.0303,VALID,0,VALID,20.1694,VALID,237,VALID,0.225946,
2002-02-26, 03:16:00,VALID,917.455,VALID,0,VALID,96.1676,VALID,0.0169808,VALID,20.1753,VALID,238,VALID,0.607589,
2002-02-26, 03:17:00,VALID,917.473,VALID,0,VALID,96.1448,VALID,-0.0509425,VALID,20.1758,VALID,229,VALID,0.690905,
2002-02-26, 03:18:00,VALID,917.474,VALID,0,VALID,96.1575,VALID,0,VALID,20.1427,VALID,228,VALID,1.05563,
2002-02-26, 03:19:00,VALID,917.454,VALID,0,VALID,96.3762,VALID,-0.0169808,VALID,20.1529,VALID,238,VALID,0.959201,
2002-02-26, 03:20:00,VALID,917.443,VALID,0,VALID,96.4334,VALID,-0.0509425,VALID,20.1403,VALID,207,VALID,0.802632,
2002-02-26, 03:21:00,VALID,917.419,VALID,0,VALID,96.5199,VALID,0,VALID,20.1308,VALID,225,VALID,0.555889,
2002-02-26, 03:22:00,VALID,917.412,VALID,0,VALID,96.5796,VALID,0,VALID,20.1373,VALID,185,VALID,0.589063,
2002-02-26, 03:23:00,VALID,917.418,VALID,0,VALID,96.614,VALID,-0.0339617,VALID,20.137,VALID,183,VALID,0.175,
2002-02-26, 03:24:00,VALID,917.422,VALID,0,VALID,96.6648,VALID,-0.0169808,VALID,20.1373,VALID,192,VALID,0.215794,
2002-02-26, 03:25:00,VALID,917.447,VALID,0,VALID,96.6877,VALID,-0.0339617,VALID,20.1433,VALID,324,VALID,0.428539,
2002-02-26, 03:26:00,VALID,917.48,VALID,0,VALID,96.5288,VALID,-0.0339617,VALID,20.1104,VALID,1,VALID,0.579241,
2002-02-26, 03:27:00,VALID,917.504,VALID,0,VALID,96.5657,VALID,-0.0679233,VALID,20.0851,VALID,3,VALID,0.127003,
2002-02-26, 03:28:00,VALID,917.52,VALID,0,VALID,96.6508,VALID,-0.0339617,VALID,20.0687,VALID,3,VALID,0,
2002-02-26, 03:29:00,VALID,917.542,VALID,0,VALID,96.7373,VALID,-0.0339617,VALID,20.0894,VALID,3,VALID,0.0402961,
2002-02-26, 03:30:00,VALID,917.563,VALID,0,VALID,96.7399,VALID,0,VALID,20.062,VALID,3,VALID,0.0254464,
2002-02-26, 03:31:00,VALID,917.574,VALID,0,VALID,96.8479,VALID,-0.0339617,VALID,20.0951,VALID,1,VALID,0.106771,
2002-02-26, 03:32:00,VALID,917.573,VALID,0,VALID,97.0094,VALID,-0.0339617,VALID,20.108,VALID,336,VALID,0.25142,
2002-02-26, 03:33:00,VALID,917.57,VALID,0,VALID,97.1404,VALID,-0.0679233,VALID,20.1403,VALID,236,VALID,0.450304,
2002-02-26, 03:34:00,VALID,917.585,VALID,0,VALID,97.218,VALID,-0.0849042,VALID,20.1669,VALID,242,VALID,0.445724,
2002-02-26, 03:35:00,VALID,917.581,VALID,0,VALID,97.2282,VALID,-0.0509425,VALID,20.1564,VALID,243,VALID,1.02644,
2002-02-26, 03:36:00,VALID,917.576,VALID,0,VALID,97.1684,VALID,-0.0679233,VALID,20.1567,VALID,237,VALID,0.826367,